Location: Edisto_Beach
(32.4790°N, 80.3350°W)
Time: 11:18:22
(UTC-05:00)

Amateur Radio Satellites - All Passes

Search period start: 29 January 2015 10:48
Search period end: 30 January 2015 10:48
Location: Edisto_Beach, 32.4790°N, 80.3350°W

Satellite Date Start Highest point End Downlink Frequencies (MHz)
Time Altitude Azimuth
DELFI C3 29 Jan 10:50:52 10:54:18 26° 287° (WNW) 10:57:39 145.870
BUGSAT 1 29 Jan 10:51:03 10:55:08 89° 58° (ENE) 10:59:16 437.445
AISAT 29 Jan 10:52:45 10:57:14 65° 101° (E) 11:01:42 437.250
POLYITAN 1 29 Jan 10:53:51 10:58:05 61° 259° (W) 11:02:22 437.675
DOVE 4 29 Jan 10:54:05 10:56:42 14° 293° (WNW) 10:58:59 437.250
UWE-3 29 Jan 10:55:02 10:59:11 38° 286° (WNW) 11:03:11 435.000/436.395/437.385
ESTCUBE 1 29 Jan 10:55:58 10:59:49 28° 96° (E) 11:03:44 437.505/2401.250
UNISAT 6 29 Jan 10:57:35 11:01:53 34° 263° (W) 11:06:09 437.425
Oscar 11 29 Jan 11:09:55 11:12:27 15° 290° (WNW) 11:14:47 145.826/435.025
RS-15 29 Jan 11:10:51 11:13:37 11° 18° (NNE) 11:16:53 29.354- 29.394
AIST 1 29 Jan 11:12:29 11:16:33 47° 93° (E) 11:20:40
POPSAT HIP 1 29 Jan 11:14:18 11:18:13 34° 263° (W) 11:22:08 437.405
VERMONT LUNAR 29 Jan 11:14:45 11:17:30 21° 0° (N) 11:20:15 437.305
GONETS M04 29 Jan 11:15:20 11:19:58 16° 66° (ENE) 11:25:12
DUCHIFAT 1 29 Jan 11:17:02 11:20:53 32° 263° (W) 11:24:43 145.980
VELOX 1 29 Jan 11:21:04 11:25:30 59° 285° (WNW) 11:29:54 145.980
CUBEBUG 1 29 Jan 11:29:21 11:33:47 65° 101° (E) 11:38:13 437.445
ANTELSAT 29 Jan 11:35:47 11:38:14 13° 269° (W) 11:40:25 437.575/2403.000
50 SAT 29 Jan 11:37:45 11:41:25 33° 286° (WNW) 11:45:00 437.505
SO-50 29 Jan 11:38:07 11:41:04 16° 312° (NW) 11:43:54 436.795
AIST 2 29 Jan 11:43:13 11:46:40 24° 54° (NE) 11:50:06 435.215
TIGRISAT 29 Jan 11:44:33 11:46:04 11° 270° (W) 11:47:14 435.000
UKube-1 29 Jan 11:46:14 11:47:44 11° 292° (WNW) 11:48:58 .
BEESAT 2 29 Jan 11:46:48 11:50:57 66° 60° (ENE) 11:55:02 435.950
TISAT 1 29 Jan 11:52:29 11:55:56 24° 95° (E) 11:59:27 437.305
NANOSAT C BR1 29 Jan 11:53:57 11:55:50 12° 269° (W) 11:57:27 145.865
BEESAT 3 29 Jan 12:00:55 12:05:03 71° 244° (WSW) 12:09:05 437.485
HUMSAT D 29 Jan 12:03:01 12:05:19 14° 290° (WNW) 12:07:23 437.325/437.525
PHONESAT 2.4 29 Jan 12:13:53 12:16:50 23° 5° (N) 12:19:48 2401.200-2431.200
Oscar 19 29 Jan 12:16:02 12:20:03 24° 70° (ENE) 12:24:14 437.125/150
ESTCUBE 1 29 Jan 12:33:05 12:36:35 22° 289° (WNW) 12:39:58 437.505/2401.250
ITAMSAT 1 29 Jan 12:35:01 12:36:29 11° 66° (ENE) 12:38:18 435.822/435.867
ITUPSAT 1 29 Jan 12:40:06 12:40:53 11° 90° (E) 12:42:03 437.325
SPROUT 29 Jan 12:50:40 12:54:58 60° 285° (WNW) 12:59:14 437.525
VERMONT LUNAR 29 Jan 12:52:57 12:56:12 34° 17° (NNE) 12:59:28 437.305
GONETS M04 29 Jan 13:09:20 13:18:03 84° 265° (W) 13:26:45
RS-15 29 Jan 13:20:24 13:30:44 39° 49° (NE) 13:41:40 29.354- 29.394
AIST 2 29 Jan 13:21:42 13:25:14 25° 248° (WSW) 13:28:37 435.215
TISAT 1 29 Jan 13:28:18 13:31:40 22° 289° (WNW) 13:34:56 437.305
Gurwin Techsat 1B 29 Jan 13:29:22 13:33:49 29° 71° (ENE) 13:38:23 435.225
AO-7 29 Jan 13:36:12 13:37:30 11° 54° (NE) 13:39:28 29.400- 29.500
PHONESAT 2.4 29 Jan 13:52:22 13:55:54 48° 21° (NNE) 13:59:27 2401.200-2431.200
Oscar 19 29 Jan 13:54:36 13:59:16 33° 263° (W) 14:03:54 437.125/150
SWISSCUBE 29 Jan 13:54:42 13:59:30 89° 280° (W) 14:04:17 437.505
PCSat 29 Jan 13:57:48 14:03:11 63° 62° (ENE) 14:08:33 145.827
ITAMSAT 1 29 Jan 14:10:20 14:15:28 71° 258° (WSW) 14:20:40 435.822/435.867
BEESAT 29 Jan 14:10:32 14:15:17 65° 284° (WNW) 14:20:00 436.000
ITUPSAT 1 29 Jan 14:14:32 14:19:15 60° 285° (WNW) 14:23:58 437.325
DANDE 29 Jan 14:19:59 14:21:18 11° 58° (ENE) 14:22:56 436.750
STARS 29 Jan 14:23:25 14:26:24 18° 94° (E) 14:29:32 437.465
KKS-1 29 Jan 14:29:14 14:33:20 34° 98° (E) 14:37:24 437.445
VERMONT LUNAR 29 Jan 14:30:59 14:34:24 48° 212° (SSW) 14:37:48 437.305
CUSAT 1 29 Jan 14:45:54 14:50:20 23° 67° (ENE) 14:53:59 437.405
Gurwin Techsat 1B 29 Jan 15:09:13 15:13:46 28° 264° (W) 15:18:14 435.225
GONETS M04 29 Jan 15:10:39 15:13:51 12° 279° (W) 15:16:14
HORYU 2 29 Jan 15:12:18 15:16:49 77° 259° (W) 15:21:19 437.375
O/OREOS (USA 219) 29 Jan 15:17:33 15:20:37 19° 102° (ESE) 15:23:51 437.305
AO-7 29 Jan 15:20:45 15:28:57 64° 70° (ENE) 15:37:12 29.400- 29.500
AUBIESAT-1 29 Jan 15:21:49 15:24:38 25° 102° (ESE) 15:27:36 437.475
PHONESAT 2.4 29 Jan 15:31:09 15:34:24 30° 215° (SW) 15:37:38 2401.200-2431.200
RS-15 29 Jan 15:32:28 15:43:39 57° 248° (WSW) 15:55:11 29.354- 29.394
JAS-2 29 Jan 15:43:02 15:47:53 32° 72° (ENE) 15:52:33 435.910
PCSat 29 Jan 15:43:33 15:46:09 13° 255° (WSW) 15:48:23 145.827
STARS 29 Jan 15:59:02 16:02:58 31° 288° (WNW) 16:06:49 437.465
DANDE 29 Jan 15:59:58 16:06:11 73° 266° (W) 16:10:43 436.750
KKS-1 29 Jan 16:06:43 16:09:44 17° 290° (WNW) 16:12:35 437.445
MOZHAYETS 4 29 Jan 16:10:45 16:13:25 16° 92° (E) 16:16:18
JUGNU 29 Jan 16:16:51 16:19:53 14° 165° (SSE) 16:23:00 437.505
M-CUBED/EXP-1 PRIME 29 Jan 16:23:32 16:26:31 30° 290° (WNW) 16:29:34 437.505
CUSAT 1 29 Jan 16:28:43 16:33:25 27° 273° (W) 16:37:01 437.405
CUTE-I 29 Jan 16:38:16 16:40:32 13° 66° (ENE) 16:43:07 437.470
O/OREOS (USA 219) 29 Jan 16:55:53 16:59:51 30° 295° (WNW) 17:03:48 437.305
AUBIESAT-1 29 Jan 16:57:49 16:59:27 13° 293° (WNW) 17:00:57 437.475
AO-7 29 Jan 17:15:50 17:22:18 23° 266° (W) 17:28:26 29.400- 29.500
JAS-2 29 Jan 17:28:31 17:33:05 24° 264° (W) 17:37:16 435.910
MOZHAYETS 4 29 Jan 17:46:36 17:50:50 37° 286° (WNW) 17:55:01
Cubesat XI-IV 29 Jan 17:54:55 18:00:13 82° 78° (ENE) 18:05:35 437.490
PRISM 29 Jan 17:58:26 18:01:37 22° 95° (E) 18:04:55 437.425
CUBESAT XI-V 29 Jan 18:03:31 18:06:49 19° 93° (E) 18:10:17 437.345
JUGNU 29 Jan 18:03:48 18:08:18 22° 175° (S) 18:12:51 437.505
YUBILEINY 29 Jan 18:10:11 18:14:11 15° 82° (E) 18:18:53 435.215
CUTE-I 29 Jan 18:14:53 18:20:08 65° 258° (WSW) 18:25:27 437.470
STRAND 1 29 Jan 18:17:49 18:21:25 20° 94° (E) 18:25:13 437.568
SO-50 29 Jan 18:32:43 18:35:40 16° 48° (NE) 18:38:47 436.795
SRMSAT 29 Jan 18:44:59 18:49:08 19° 170° (S) 18:53:19 437.500
HO-68 29 Jan 18:52:21 18:56:03 16° 61° (ENE) 19:00:09 435.675
PRISM 29 Jan 19:33:46 19:37:05 23° 288° (WNW) 19:40:19 437.425
CUBESAT XI-V 29 Jan 19:40:09 19:44:22 33° 287° (WNW) 19:48:31 437.345
COMPASS 1 29 Jan 19:42:25 19:44:15 13° 70° (ENE) 19:46:17 437.405
JUGNU 29 Jan 19:52:11 19:56:46 23° 185° (S) 20:01:22 437.505
CANX-2 29 Jan 19:55:54 19:59:40 31° 73° (ENE) 20:03:29 2200.000
STRAND 1 29 Jan 19:56:01 20:00:47 38° 288° (WNW) 20:05:30 437.568
CINEMA 3 29 Jan 20:01:14 20:03:33 14° 68° (ENE) 20:06:11 145.822/145.860
YUBILEINY 29 Jan 20:01:24 20:10:06 85° 276° (W) 20:18:51 435.215
GOMX 1 29 Jan 20:04:45 20:09:20 39° 73° (ENE) 20:14:17 467.674
AAUSAT CUBESAT 2 29 Jan 20:06:54 20:10:07 22° 72° (ENE) 20:13:27 437.432
BRITE-PL 29 Jan 20:11:11 20:16:04 67° 76° (ENE) 20:21:25 437.365/2234.400
SO-50 29 Jan 20:11:48 20:16:38 57° 245° (WSW) 20:21:26 436.795
DOVE 4 29 Jan 20:15:05 20:19:34 36° 72° (ENE) 20:24:20 437.250
CUTE 1.7 + AOD 2 29 Jan 20:19:31 20:23:43 55° 76° (ENE) 20:27:56 437.475
Oscar 11 29 Jan 20:24:00 20:26:46 17° 70° (ENE) 20:29:41 145.826/435.025
ISS 29 Jan 20:29:55 20:32:30 22° 129° (SE) 20:35:10 145.825
SRMSAT 29 Jan 20:33:01 20:37:45 24° 180° (S) 20:42:28 437.500
HO-68 29 Jan 20:35:53 20:43:03 83° 255° (WSW) 20:50:14 435.675
SEEDS 29 Jan 20:49:29 20:53:44 73° 259° (W) 20:57:59 437.485
UKube-1 29 Jan 20:58:52 21:02:21 25° 71° (ENE) 21:05:56 .
CUBEBUG 2 29 Jan 21:08:00 21:12:25 41° 74° (ENE) 21:16:56 437.445
ZACube-1 29 Jan 21:13:54 21:17:56 32° 73° (ENE) 21:22:05 437.345
HUMSAT D 29 Jan 21:14:38 21:17:16 16° 70° (ENE) 21:20:05 437.325/437.525
COMPASS 1 29 Jan 21:15:39 21:19:40 41° 262° (W) 21:23:40 437.405
DX 1 29 Jan 21:19:32 21:23:40 46° 74° (ENE) 21:27:52 434.975-435.025
FUNcube-1 29 Jan 21:25:24 21:29:42 43° 74° (ENE) 21:34:05 145.935
CANX-2 29 Jan 21:32:49 21:35:42 17° 267° (W) 21:38:26 2200.000
DELFI C3 29 Jan 21:33:48 21:37:53 82° 258° (WSW) 21:41:59 145.870
CINEMA 3 29 Jan 21:35:31 21:40:19 55° 261° (W) 21:45:15 145.822/145.860
JUGNU 29 Jan 21:41:49 21:45:13 15° 194° (SSW) 21:48:33 437.505
AAUSAT CUBESAT 2 29 Jan 21:42:20 21:45:44 23° 265° (W) 21:49:02 437.432
GOMX 1 29 Jan 21:44:01 21:47:41 19° 269° (W) 21:51:19 467.674
AISAT 29 Jan 21:46:38 21:50:35 33° 73° (ENE) 21:54:36 437.250
UWE-3 29 Jan 21:46:44 21:51:24 85° 256° (WSW) 21:56:08 435.000/436.395/437.385
ESTCUBE 1 29 Jan 21:52:37 21:55:09 16° 69° (ENE) 21:57:53 437.505/2401.250
DOVE 4 29 Jan 21:53:38 21:57:28 21° 268° (W) 22:01:16 437.250
BRITE-PL 29 Jan 21:54:00 21:55:19 11° 273° (W) 21:56:15 437.365/2234.400
ANTELSAT 29 Jan 21:55:32 21:57:33 13° 91° (E) 21:59:49 437.575/2403.000
Oscar 11 29 Jan 21:58:49 22:02:45 32° 263° (W) 22:06:38 145.826/435.025
TIGRISAT 29 Jan 22:02:28 22:05:05 16° 92° (E) 22:07:52 435.000
YUBILEINY 29 Jan 22:04:25 22:08:29 13° 297° (WNW) 22:11:47 435.215
ISS 29 Jan 22:06:10 22:08:57 25° 323° (NW) 22:11:43 145.825
VELOX 1 29 Jan 22:14:08 22:18:31 69° 76° (ENE) 22:22:57 145.980
50 SAT 29 Jan 22:19:59 22:24:06 76° 77° (ENE) 22:28:14 437.505
QB50P2 29 Jan 22:21:20 22:23:52 16° 93° (E) 22:26:34 145.880/145.840
CUBEBUG 1 29 Jan 22:21:34 22:25:20 30° 72° (ENE) 22:29:10 437.445
SRMSAT 29 Jan 22:22:08 22:26:22 20° 190° (S) 22:30:33 437.500
QB50P1 29 Jan 22:30:00 22:33:06 20° 94° (E) 22:36:19 145.935-145.965
HO-68 29 Jan 22:30:45 22:31:52 10° 272° (W) 22:32:17 435.675
UKube-1 29 Jan 22:35:05 22:38:30 22° 265° (W) 22:41:48 .
BUGSAT 1 29 Jan 22:39:01 22:42:03 19° 94° (E) 22:45:11 437.445
TISAT 1 29 Jan 22:43:16 22:44:03 11° 68° (ENE) 22:45:06 437.305
POLYITAN 1 29 Jan 22:44:36 22:48:25 30° 97° (E) 22:52:13 437.675
CUBEBUG 2 29 Jan 22:46:20 22:49:20 16° 268° (W) 22:52:08 437.445
HUMSAT D 29 Jan 22:48:51 22:52:50 34° 263° (W) 22:56:48 437.325/437.525
ZACube-1 29 Jan 22:51:03 22:54:25 19° 267° (W) 22:57:37 437.345
UNISAT 6 29 Jan 22:54:13 22:58:38 73° 101° (E) 23:02:56 437.425
DX 1 29 Jan 22:58:36 23:00:14 12° 269° (W) 23:01:35 434.975-435.025
AIST 1 29 Jan 23:01:38 23:05:57 65° 266° (W) 23:10:17
FUNcube-1 29 Jan 23:03:45 23:06:19 14° 269° (W) 23:08:39 145.935
POPSAT HIP 1 29 Jan 23:04:01 23:08:14 53° 100° (E) 23:12:25 437.405
DUCHIFAT 1 29 Jan 23:06:19 23:10:33 56° 100° (E) 23:14:45 145.980
AISAT 29 Jan 23:24:19 23:27:19 17° 267° (W) 23:30:11 437.250
ESTCUBE 1 29 Jan 23:27:35 23:31:47 38° 262° (W) 23:35:57 437.505/2401.250
ANTELSAT 29 Jan 23:30:30 23:34:38 39° 286° (WNW) 23:38:39 437.575/2403.000
TIGRISAT 29 Jan 23:38:02 23:42:02 33° 287° (WNW) 23:45:53 435.000
SPROUT 29 Jan 23:40:12 23:44:24 56° 76° (ENE) 23:48:40 437.525
NANOSAT C BR1 29 Jan 23:41:06 23:45:17 51° 285° (WNW) 23:49:26 145.865
QB50P2 29 Jan 23:56:02 23:59:55 33° 287° (WNW) 00:03:45 145.880/145.840
CUBEBUG 1 29 Jan 23:58:44 00:01:47 18° 266° (W) 00:04:41 437.445
QB50P1 30 Jan 00:05:21 00:09:01 26° 288° (WNW) 00:12:34 145.935-145.965
GONETS M04 30 Jan 00:10:37 00:16:38 22° 85° (E) 00:23:05
BUGSAT 1 30 Jan 00:13:53 00:17:34 28° 288° (WNW) 00:21:10 437.445
SRMSAT 30 Jan 00:14:10 00:14:57 10° 198° (SSW) 00:15:34 437.500
TISAT 1 30 Jan 00:15:21 00:19:28 51° 260° (W) 00:23:38 437.305
POLYITAN 1 30 Jan 00:21:11 00:24:09 18° 290° (WNW) 00:26:58 437.675
Oscar 19 30 Jan 00:34:11 00:35:32 11° 90° (E) 00:37:17 437.125/150
POPSAT HIP 1 30 Jan 00:42:38 00:43:44 11° 292° (WNW) 00:44:34 437.405
DUCHIFAT 1 30 Jan 00:45:42 00:46:00 10° 292° (WNW) 00:46:00 145.980
SWISSCUBE 30 Jan 00:56:46 01:01:27 62° 76° (ENE) 01:06:10 437.505
BEESAT 30 Jan 01:12:22 01:17:07 85° 75° (ENE) 01:21:54 436.000
ITUPSAT 1 30 Jan 01:16:40 01:21:25 88° 251° (WSW) 01:26:13 437.325
KKS-1 30 Jan 01:23:57 01:27:01 19° 70° (ENE) 01:30:14 437.445
O/OREOS (USA 219) 30 Jan 01:31:33 01:34:44 19° 61° (ENE) 01:38:04 437.305
BEESAT 2 30 Jan 01:37:26 01:41:12 38° 114° (ESE) 01:45:06 435.950
AIST 2 30 Jan 01:38:25 01:40:41 15° 110° (ESE) 01:43:10 435.215
BEESAT 3 30 Jan 01:50:32 01:54:34 67° 116° (ESE) 01:58:41 437.485
Gurwin Techsat 1B 30 Jan 01:51:01 01:54:11 17° 92° (E) 01:57:36 435.225
GONETS M04 30 Jan 02:04:12 02:12:54 64° 279° (W) 02:21:32
AUBIESAT-1 30 Jan 02:07:00 02:09:52 20° 69° (ENE) 02:12:42 437.475
Oscar 19 30 Jan 02:10:19 02:15:25 63° 286° (WNW) 02:20:28 437.125/150
ITAMSAT 1 30 Jan 02:27:51 02:33:02 61° 101° (E) 02:38:13 435.822/435.867
STARS 30 Jan 02:50:55 02:55:20 63° 259° (W) 02:59:46 437.465
PCSat 30 Jan 02:54:08 02:57:03 15° 106° (ESE) 03:00:15 145.827
KKS-1 30 Jan 02:59:28 03:03:29 31° 263° (W) 03:07:28 437.445
M-CUBED/EXP-1 PRIME 30 Jan 03:07:57 03:12:04 56° 255° (WSW) 03:15:51 437.505
HORYU 2 30 Jan 03:08:55 03:12:45 29° 97° (E) 03:16:37 437.375
O/OREOS (USA 219) 30 Jan 03:10:08 03:14:17 33° 256° (WSW) 03:18:22 437.305
AIST 2 30 Jan 03:15:02 03:19:01 38° 303° (WNW) 03:23:02 435.215
BEESAT 2 30 Jan 03:17:00 03:19:38 16° 309° (NW) 03:22:09 435.950
DANDE 30 Jan 03:20:51 03:27:18 29° 87° (E) 03:34:31 436.750
AO-7 30 Jan 03:28:35 03:35:12 27° 95° (E) 03:42:04 29.400- 29.500
Gurwin Techsat 1B 30 Jan 03:29:22 03:34:28 48° 287° (WNW) 03:39:32 435.225
BEESAT 3 30 Jan 03:32:41 03:33:14 10° 313° (NW) 03:33:33 437.485
RS-15 30 Jan 03:39:20 03:48:40 35° 108° (ESE) 03:58:15 29.354- 29.394
AUBIESAT-1 30 Jan 03:41:20 03:44:42 24° 258° (WSW) 03:47:49 437.475
CUSAT 1 30 Jan 03:44:34 03:52:10 51° 92° (E) 04:00:19 437.405
ITAMSAT 1 30 Jan 04:09:28 04:12:06 14° 294° (WNW) 04:14:26 435.822/435.867
PCSat 30 Jan 04:34:46 04:40:04 55° 298° (WNW) 04:45:24 145.827
ISS 30 Jan 04:37:09 04:40:15 37° 40° (NE) 04:43:22 145.825
JAS-2 30 Jan 04:39:19 04:44:58 47° 100° (E) 04:51:23 435.910
MOZHAYETS 4 30 Jan 04:43:32 04:48:07 70° 260° (W) 04:52:42
HORYU 2 30 Jan 04:46:00 04:49:17 20° 290° (WNW) 04:52:25 437.375
DANDE 30 Jan 05:02:28 05:10:20 57° 283° (WNW) 05:18:51 436.750
CUBESAT XI-V 30 Jan 05:04:42 05:06:03 11° 68° (ENE) 05:07:41 437.345
AO-7 30 Jan 05:20:18 05:28:23 55° 291° (WNW) 05:36:22 29.400- 29.500
CUSAT 1 30 Jan 05:28:18 05:35:30 32° 289° (WNW) 05:42:46 437.405
STRAND 1 30 Jan 05:29:50 05:33:10 18° 68° (ENE) 05:36:42 437.568
RS-15 30 Jan 05:49:59 06:00:39 55° 305° (NW) 06:11:18 29.354- 29.394
ISS 30 Jan 06:14:39 06:16:33 14° 232° (SW) 06:18:20 145.825
Cubesat XI-IV 30 Jan 06:17:04 06:22:15 48° 99° (E) 06:27:27 437.490
YUBILEINY 30 Jan 06:17:40 06:25:40 39° 76° (ENE) 06:33:48 435.215
PRISM 30 Jan 06:19:03 06:23:05 56° 259° (W) 06:27:08 437.425
JAS-2 30 Jan 06:25:28 06:29:55 22° 290° (WNW) 06:34:30 435.910
CUTE-I 30 Jan 06:36:39 06:42:02 76° 102° (ESE) 06:47:25 437.470
CUBESAT XI-V 30 Jan 06:38:35 06:43:06 56° 261° (W) 06:47:37 437.345
STRAND 1 30 Jan 07:07:16 07:12:05 42° 261° (W) 07:16:54 437.568
VERMONT LUNAR 30 Jan 07:14:59 07:18:11 36° 147° (SSE) 07:21:26 437.305
Cubesat XI-IV 30 Jan 07:58:25 08:02:01 18° 292° (WNW) 08:05:24 437.490
HO-68 30 Jan 08:09:46 08:15:12 24° 94° (E) 08:20:54 435.675
RS-15 30 Jan 08:10:45 08:16:30 15° 334° (NNW) 08:21:45 29.354- 29.394
CUTE 1.7 + AOD 2 30 Jan 08:11:20 08:13:19 13° 92° (E) 08:15:31 437.475
GOMX 1 30 Jan 08:12:44 08:16:13 18° 91° (E) 08:19:47 467.674
YUBILEINY 30 Jan 08:14:31 08:22:27 38° 272° (W) 08:30:14 435.215
PHONESAT 2.4 30 Jan 08:19:19 08:22:53 68° 151° (SSE) 08:26:29 2401.200-2431.200
CUTE-I 30 Jan 08:19:45 08:21:34 11° 295° (WNW) 08:23:02 437.470
DOVE 4 30 Jan 08:20:57 08:23:31 14° 89° (E) 08:26:19 437.250
BRITE-PL 30 Jan 08:21:18 08:26:21 35° 95° (E) 08:31:13 437.365/2234.400
SEEDS 30 Jan 08:39:21 08:42:48 25° 96° (E) 08:46:18 437.485
SO-50 30 Jan 08:45:12 08:46:18 11° 108° (ESE) 08:47:43 436.795
VERMONT LUNAR 30 Jan 08:52:59 08:56:17 40° 341° (NNW) 08:59:36 437.305
COMPASS 1 30 Jan 09:04:01 09:07:58 42° 98° (E) 09:11:56 437.405
CUBEBUG 2 30 Jan 09:06:35 09:08:02 12° 90° (E) 09:09:46 437.445
DX 1 30 Jan 09:14:48 09:16:13 12° 91° (E) 09:17:56 434.975-435.025
DELFI C3 30 Jan 09:19:38 09:22:30 19° 94° (E) 09:25:28 145.870
CANX-2 30 Jan 09:21:18 09:25:30 68° 283° (WNW) 09:29:40 2200.000
FUNcube-1 30 Jan 09:21:27 09:22:35 11° 90° (E) 09:24:01 145.935
AAUSAT CUBESAT 2 30 Jan 09:29:22 09:33:32 79° 101° (E) 09:37:40 437.432
POLYITAN 1 30 Jan 09:35:00 09:37:08 14° 69° (ENE) 09:39:30 437.675
CINEMA 3 30 Jan 09:35:47 09:40:27 52° 99° (E) 09:44:53 145.822/145.860
UWE-3 30 Jan 09:42:29 09:46:13 27° 95° (E) 09:49:56 435.000/436.395/437.385
CUTE 1.7 + AOD 2 30 Jan 09:45:33 09:49:28 37° 286° (WNW) 09:53:19 437.475
UNISAT 6 30 Jan 09:48:32 09:52:51 38° 74° (ENE) 09:57:14 437.425
GOMX 1 30 Jan 09:49:32 09:54:36 43° 287° (WNW) 09:59:23 467.674
Oscar 11 30 Jan 09:50:22 09:54:38 63° 100° (E) 09:58:52 145.826/435.025
POPSAT HIP 1 30 Jan 09:53:13 09:56:30 23° 72° (ENE) 09:59:55 437.405
DUCHIFAT 1 30 Jan 09:55:10 09:58:31 23° 72° (ENE) 10:01:58 145.980
HO-68 30 Jan 09:56:21 10:03:16 52° 289° (WNW) 10:10:07 435.675
DOVE 4 30 Jan 09:56:44 10:01:42 49° 286° (WNW) 10:06:22 437.250
PHONESAT 2.4 30 Jan 09:58:24 10:01:39 30° 346° (NNW) 10:04:54 2401.200-2431.200
BRITE-PL 30 Jan 10:00:04 10:04:40 26° 290° (WNW) 10:08:58 437.365/2234.400
50 SAT 30 Jan 10:05:47 10:07:50 14° 92° (E) 10:10:04 437.505
VELOX 1 30 Jan 10:10:30 10:13:39 19° 94° (E) 10:16:58 145.980
SEEDS 30 Jan 10:15:25 10:18:31 20° 288° (WNW) 10:21:29 437.485
BEESAT 3 30 Jan 10:16:22 10:17:45 12° 48° (NE) 10:19:20 437.485
SO-50 30 Jan 10:21:55 10:26:22 57° 300° (WNW) 10:30:58 436.795
ANTELSAT 30 Jan 10:24:10 10:28:54 83° 259° (W) 10:33:38 437.575/2403.000
UKube-1 30 Jan 10:26:16 10:30:39 88° 100° (E) 10:35:01 .
NANOSAT C BR1 30 Jan 10:29:03 10:33:15 63° 76° (ENE) 10:37:30 145.865
TIGRISAT 30 Jan 10:31:17 10:35:59 70° 259° (W) 10:40:42 435.000
VERMONT LUNAR 30 Jan 10:32:11 10:34:56 21° 357° (N) 10:37:42 437.305
HUMSAT D 30 Jan 10:37:48 10:41:55 53° 100° (E) 10:45:58 437.325/437.525
COMPASS 1 30 Jan 10:41:37 10:43:23 12° 291° (WNW) 10:44:54 437.405
